College Station, TX

8:10 PM CDT on May 26, 2017 (GMT -0500)
Easterwood

Weather History for KCLL - September, 2011

Change the Weather History Date:

Sunday, September 25, 2011

  Actual Average Record
Temperature  
Mean Temperature 88 °F 77 °F  
Max Temperature 101 °F 88 °F 104 °F (2005)
Min Temperature 75 °F 67 °F 44 °F (1989)
Degree Days  
Heating Degree Days 0 0  
Month to date heating degree days 0 0  
Since 1 July heating degree days 0 0  
Cooling Degree Days 23 12  
Month to date cooling degree days 464 393  
Year to date cooling degree days 3611 2739  
Growing Degree Days 38 (Base 50)    
Moisture  
Dew Point 65 °F    
Average Humidity 55    
Maximum Humidity 87    
Minimum Humidity 23    
Precipitation  
Precipitation 0.00 in 0.10 in 1.69 in (1957)
Month to date precipitation 1.68 2.66  
Year to date precipitation 12.60 28.18  
Sea Level Pressure  
Sea Level Pressure 29.75 in    
Wind  
Wind Speed 12 mph (South)    
Max Wind Speed 22 mph    
Max Gust Speed 28 mph    
Visibility 10 miles    
Events      
T = Trace of Precipitation, MM = Missing Value Source: NWS Daily Summary

Daily Weather History Graph

Daily Weather History Graph

Search for Another Location

Airport or City:

Trip Planner

Search our weather history database for the weather conditions in past years. The results will help you decide how hot, cold, wet, or windy it might be!

Date:

Astronomy

Sep. 25, 2011 Rise Set
Actual Time 7:15 AM CDT 7:18 PM CDT
Civil Twilight 6:51 AM CDT 7:42 PM CDT
Nautical Twilight 6:23 AM CDT 8:10 PM CDT
Astronomical Twilight 5:55 AM CDT 8:38 PM CDT
Moon 5:10 AM CDT (9/25) 5:56 PM CDT (9/25)
Length of Visible Light 12h 51m
Length of Day
12h 03m
Waning Crescent, 5% of the Moon is Illuminated
Sep 25
Waning Crescent
Sep 27
New
Oct 3
First Quarter
Oct 11
Full
Oct 19
Last Quarter

Hourly Weather History & Observations

Time (CDT) Temp. Heat Index Dew Point Humidity Pressure Visibility Wind Dir Wind Speed Gust Speed Precip Events Conditions
12:53 AM 77.0 °F - 63.0 °F 62% 29.79 in 10.0 mi South 9.2 mph - N/A   Clear
1:53 AM 75.9 °F - 66.0 °F 71% 29.78 in 10.0 mi South 9.2 mph - N/A   Clear
2:53 AM 75.9 °F - 68.0 °F 76% 29.78 in 10.0 mi South 5.8 mph - N/A   Clear
3:53 AM 75.0 °F - 69.1 °F 82% 29.78 in 10.0 mi South 5.8 mph - N/A   Clear
4:53 AM 75.9 °F - 70.0 °F 82% 29.77 in 10.0 mi South 6.9 mph - N/A   Clear
5:53 AM 75.2 °F - 71.6 °F 89% 29.80 in 10.0 mi South 6.9 mph - N/A   Clear
6:53 AM 77.0 °F - 71.1 °F 82% 29.79 in 10.0 mi SSW 8.1 mph - N/A   Clear
7:53 AM 77.0 °F - 70.0 °F 79% 29.80 in 10.0 mi SSW 8.1 mph - N/A   Clear
8:53 AM 78.8 °F - 69.8 °F 74% 29.82 in 10.0 mi South 10.4 mph 19.6 mph N/A   Clear
9:53 AM 84.0 °F 86.3 °F 66.0 °F 55% 29.81 in 10.0 mi South 15.0 mph - N/A   Clear
10:53 AM 88.0 °F 89.3 °F 64.0 °F 45% 29.81 in 10.0 mi SW 18.4 mph 25.3 mph N/A   Clear
11:53 AM 91.4 °F 93.2 °F 64.4 °F 41% 29.81 in 10.0 mi SSW 19.6 mph 26.5 mph N/A   Clear
12:53 PM 95.0 °F 97.0 °F 64.0 °F 36% 29.77 in 10.0 mi South 17.3 mph 24.2 mph N/A   Clear
1:53 PM 98.6 °F 100.0 °F 62.6 °F 30% 29.75 in 10.0 mi SSW 15.0 mph 24.2 mph N/A   Clear
2:53 PM 100.0 °F 100.7 °F 60.1 °F 27% 29.69 in 10.0 mi SSW 18.4 mph 26.5 mph N/A   Clear
3:53 PM 100.0 °F 99.2 °F 57.0 °F 24% 29.68 in 10.0 mi South 13.8 mph 24.2 mph N/A   Clear
4:53 PM 100.0 °F 98.8 °F 55.9 °F 23% 29.67 in 10.0 mi SSW 12.7 mph 20.7 mph N/A   Clear
5:53 PM 100.0 °F 98.8 °F 55.9 °F 23% 29.66 in 10.0 mi SSW 16.1 mph 20.7 mph N/A   Clear
6:53 PM 97.0 °F 95.7 °F 57.0 °F 26% 29.67 in 10.0 mi South 6.9 mph - N/A   Clear
7:53 PM 93.0 °F 91.7 °F 57.0 °F 30% 29.67 in 10.0 mi South 10.4 mph - N/A   Clear
8:53 PM 90.0 °F 93.6 °F 68.0 °F 48% 29.68 in 10.0 mi South 15.0 mph 24.2 mph N/A   Clear
9:53 PM 86.0 °F 90.7 °F 70.0 °F 59% 29.70 in 10.0 mi South 13.8 mph - N/A   Clear
10:53 PM 82.9 °F 87.0 °F 70.0 °F 65% 29.71 in 10.0 mi South 12.7 mph - N/A   Clear
11:53 PM 81.0 °F 84.9 °F 71.1 °F 72% 29.72 in 10.0 mi South 9.2 mph - N/A   Clear